939  
ASUS44 KBMX 241810  
RWRAL  
 
ALABAMA REGIONAL WEATHER ROUNDUP  
NATIONAL WEATHER SERVICE BIRMINGHAM AL  
1200 PM CST SAT FEB 24 2018  
 
NOTE: "FAIR" INDICATES FEW OR NO CLOUDS BELOW 12,000 FEET  
WITH NO SIGNIFICANT WEATHER AND/OR S TO VISIBILITY
.  
 
THE REMARK "TC" DENOTES TEMPERATURE IN DEGREES CELSIUS.  
 
ALZ001>011-014-016>018-020-241900-  
NORTH ALABAMA  
 
CITY SKY/WX TMP DP RH WIND PRES REMARKS
 
MUSCLE SHOALS FAIR 75 62 64 S13 30.02F  
6HR MIN TEMP: 67; 6HR MAX TEMP: 76; 6HR PCP: TRACE;  
 
HUNTSVILLE PTSUNNY 73 67 81 S16 30.07F  
6HR MIN TEMP: 67; 6HR MAX TEMP: 73; 6HR PCP: 0.01;  
 
DECATUR PTSUNNY 73 65 75 S18G41 30.06F  
6HR MIN TEMP: 67; 6HR MAX TEMP: 74; 6HR PCP: TRACE;  
 
HALEYVILLE PTSUNNY 75 67 76 S18G24 30.06F  
6HR MIN TEMP: 66; 6HR MAX TEMP: 75; 6HR PCP: 0.04;  
 
GADSDEN CLOUDY 75 63 66 S8 30.11F  
6HR MIN TEMP: 60; 6HR MAX TEMP: 75; 6HR PCP: TRACE;  
 

 
 
ALZ012-013-022-023-030>036-040>044-241900-  
WEST CENTRAL ALABAMA  
 
CITY SKY/WX TMP DP RH WIND PRES REMARKS
 
TUSCALOOSA CLOUDY 73 67 81 S9 30.08F  
6HR MIN TEMP: 67; 6HR MAX TEMP: 73; 6HR PCP: 0.03;  
 
DEMOPOLIS N/A 74 66 77 S5 30.07F  
6HR MIN TEMP: 68; 6HR MAX TEMP: 74;  
 

 
 
ALZ015-024>026-033>036-041>044-241900-  
CENTRAL ALABAMA  
 
CITY SKY/WX TMP DP RH WIND PRES REMARKS
 
BIRMINGHAM CLOUDY 73 61 65 S13 30.13F  
6HR MIN TEMP: 67; 6HR MAX TEMP: 76; 6HR PCP: TRACE;  
 
MONTGOMERY PTSUNNY 77 64 64 S14G22 30.14F  
6HR MIN TEMP: 64; 6HR MAX TEMP: 77;  
 
SHELBY CO ARPT CLOUDY 74 63 68 S13G18 30.12F  
6HR MIN TEMP: 66; 6HR MAX TEMP: 74;  
 
MAXWELL AFB CLOUDY 76 64 67 SE13G18 30.13F  
6HR MIN TEMP: 62; 6HR MAX TEMP: 77;  
 
GREENVILLE PTSUNNY 78 62 57 S12G18 30.12F  
6HR MIN TEMP: 64; 6HR MAX TEMP: 78;  
 
SELMA MOCLDY 79 63 57 S14G22 30.10F  
PRATTVILLE MOCLDY 75 64 67 S9G17 30.13F  
6HR MIN TEMP: 61; 6HR MAX TEMP: 76;  
 
BESSEMER CLOUDY 72 64 76 S7 30.12F  
6HR MIN TEMP: 65; 6HR MAX TEMP: 72; 6HR PCP: TRACE;  
 
TALLADEGA PTSUNNY 76 61 59 S12G18 30.14F  
6HR MIN TEMP: 65; 6HR MAX TEMP: 77;  
 
PELL CITY PTCLDY 75 63 64 S12G18 30.12F  
MARION LGT RAIN 74 66 75 MISG 30.08F  
6HR MIN TEMP: 66; 6HR MAX TEMP: 74;  
 
SYLACAUGA PTSUNNY 76 64 65 SW10G17 30.14F  
6HR MIN TEMP: 66; 6HR MAX TEMP: 76;  
 

 
 
ALZ019-021-028-029-037-038-045>048-241900-  
EAST CENTRAL ALABAMA  
 
CITY SKY/WX TMP DP RH WIND PRES REMARKS
 
ANNISTON PTSUNNY 76 58 53 S10 30.12F  
6HR MIN TEMP: 66; 6HR MAX TEMP: 77;  
 
ALEXANDER CITY CLOUDY 70 65 84 S10 30.17F  
6HR MIN TEMP: 62; 6HR MAX TEMP: 70;  
 
AUBURN PTSUNNY 77 61 57 SW18G24 30.16F  
6HR MIN TEMP: 60; 6HR MAX TEMP: 79;  
 

 
 
ALZ051>064-241900-  
SOUTHWEST ALABAMA  
 
CITY SKY/WX TMP DP RH WIND PRES REMARKS
 
MOBILE PTSUNNY 80 67 64 S16G25 30.12F  
6HR MIN TEMP: 71; 6HR MAX TEMP: 81;  
 
BROOKLEY FIELD FAIR 77 71 82 SE14G21 30.13F  
6HR MIN TEMP: 68; 6HR MAX TEMP: 77;  
 
EVERGREEN PTSUNNY 82 62 50 S20G28 30.12F  
6HR MIN TEMP: 67; 6HR MAX TEMP: 82;  
 

 
 
ALZ049-050-065>069-241900-  
SOUTHEAST ALABAMA  
 
CITY SKY/WX TMP DP RH WIND PRES REMARKS
 
DOTHAN FAIR 80 60 50 SW13 30.19F  
6HR MIN TEMP: 59; 6HR MAX TEMP: 82; 6HR PCP: 0.01;  
 
OZARK FAIR 80 65 59 S10 30.16F  
6HR MIN TEMP: 61; 6HR MAX TEMP: 80;  
 
TROY PTSUNNY 77 64 64 S13 30.15F  
6HR MIN TEMP: 60; 6HR MAX TEMP: 77;  
 
EUFAULA PTSUNNY 84 63 49 SE12 30.14F  
6HR MIN TEMP: 60; 6HR MAX TEMP: 84;  
 

 
 
 
CLICK HERE TO GO TO PREVIOUS BULLETINS.

The Nexlab AL Page Main Text Page